START_TIME,STEP,MOV.,EG07,t_acc.,EG08,t_acc.,EG09,t_acc.,EB05,t_acc.,EBP05,t_acc.
1979-03-03 03:00:12.310 ,5,0,0.,1.2,0.,1.2,0.,1.2,,0.0,,0.0
1979-03-03 03:00:13.510 ,5,0,0.,1.2,0.,1.2,0.,1.2,,0.0,,0.0
1979-03-03 03:00:14.710 ,5,0,0.,1.2,0.,1.2,0.,1.2,,0.0,,0.0
1979-03-03 03:00:15.910 ,5,0,0.,1.2,0.,1.2,0.,1.2,,0.0,,0.0
1979-03-03 03:00:17.110 ,5,0,0.,1.2,0.,1.2,0.,1.2,,0.0,,0.0
1979-03-03 03:00:18.310 ,5,0,0.,1.2,0.,1.2,0.,1.2,,0.0,,0.0
1979-03-03 03:00:19.510 ,5,0,0.,1.2,0.,1.2,0.,1.2,,0.0,,0.0
1979-03-03 03:00:20.710 ,5,0,0.,1.2,0.,1.2,0.,1.2,,0.0,,0.0
1979-03-03 03:00:21.910 ,5,0,0.,1.2,0.,1.2,0.,1.2,,0.0,,0.0
1979-03-03 03:00:23.110 ,5,0,0.,1.2,0.,1.2,0.,1.2,,0.0,,0.0
1979-03-03 03:00:24.310 ,5,0,0.,1.2,0.,1.2,0.,1.2,,0.0,,0.0
1979-03-03 03:00:25.510 ,5,0,0.,1.2,0.,1.2,0.,1.2,,0.0,,0.0
1979-03-03 03:00:26.710 ,5,0,0.,1.2,0.,1.2,0.,1.2,,0.0,,0.0
1979-03-03 03:00:27.910 ,5,0,0.,1.2,0.,1.2,0.,1.2,,0.0,,0.0
1979-03-03 03:00:29.110 ,5,0,0.,1.2,0.,1.2,0.,1.2,,0.0,,0.0
1979-03-03 03:00:30.310 ,5,0,0.,1.2,0.,1.2,0.,1.2,,0.0,,0.0
1979-03-03 03:00:31.510 ,5,0,0.,1.2,0.,1.2,0.,1.2,,0.0,,0.0
1979-03-03 03:00:32.710 ,5,0,0.,1.2,0.,1.2,0.,1.2,,0.0,,0.0
1979-03-03 03:00:33.910 ,5,0,0.,1.2,0.,1.2,0.,1.2,,0.0,,0.0
1979-03-03 03:00:35.110 ,5,0,0.,1.2,0.,1.2,0.,1.2,,0.0,,0.0
1979-03-03 03:00:36.310 ,6,0,0.,1.2,0.,1.2,0.,1.2,,0.0,,0.0
1979-03-03 03:00:37.510 ,6,0,0.,1.2,0.,1.2,0.,1.2,,0.0,,0.0
1979-03-03 03:00:38.710 ,6,0,0.,1.2,0.,1.2,0.,1.2,,0.0,,0.0
1979-03-03 03:00:39.910 ,6,0,0.,1.2,0.,1.2,0.,1.2,,0.0,,0.0
1979-03-03 03:00:41.110 ,6,0,0.,1.2,0.,1.2,0.,1.2,,0.0,,0.0
1979-03-03 03:00:42.310 ,6,0,0.,1.2,0.,1.2,0.,1.2,,0.0,,0.0
1979-03-03 03:00:43.510 ,6,0,0.,1.2,0.,1.2,0.,1.2,,0.0,,0.0
1979-03-03 03:00:44.710 ,6,0,0.,1.2,0.,1.2,0.,1.2,,0.0,,0.0
1979-03-03 03:00:45.910 ,6,0,0.,1.2,0.,1.2,0.,1.2,,0.0,,0.0
1979-03-03 03:00:47.110 ,6,0,0.,1.2,0.,1.2,0.,1.2,,0.0,,0.0
1979-03-03 03:00:48.310 ,6,0,0.,1.2,0.,1.2,0.,1.2,,0.0,,0.0
1979-03-03 03:00:49.510 ,6,0,0.,1.2,0.,1.2,0.,1.2,,0.0,,0.0
1979-03-03 03:00:50.710 ,6,0,0.,1.2,0.,1.2,0.,1.2,,0.0,,0.0
1979-03-03 03:00:51.910 ,6,0,0.,1.2,0.,1.2,0.,1.2,,0.0,,0.0
1979-03-03 03:00:53.110 ,6,0,0.,1.2,0.,1.2,0.,1.2,,0.0,,0.0
1979-03-03 03:00:54.310 ,6,0,0.,1.2,0.,1.2,0.,1.2,,0.0,,0.0
1979-03-03 03:00:55.510 ,6,0,0.,1.2,0.,1.2,0.,1.2,,0.0,,0.0
1979-03-03 03:00:56.710 ,6,0,0.,1.2,0.,1.2,0.,1.2,,0.0,,0.0
1979-03-03 03:00:57.910 ,6,0,0.,1.2,0.,1.2,0.,1.2,,0.0,,0.0
1979-03-03 03:00:59.110 ,6,0,0.,1.2,0.,1.2,0.,1.2,,0.0,,0.0
1979-03-03 03:01:00.310 ,7,0,0.,1.2,0.,1.2,0.,1.2,,0.0,,0.0
1979-03-03 03:01:01.510 ,7,0,0.,1.2,0.,1.2,0.,1.2,,0.0,,0.0
1979-03-03 03:01:02.710 ,7,0,0.,1.2,0.,1.2,0.,1.2,,0.0,,0.0
1979-03-03 03:01:03.910 ,7,0,0.,1.2,0.,1.2,0.,1.2,,0.0,,0.0
1979-03-03 03:01:05.110 ,7,0,0.,1.2,0.,1.2,0.,1.2,,0.0,,0.0
1979-03-03 03:01:06.310 ,7,0,0.,1.2,0.,1.2,0.,1.2,,0.0,,0.0
1979-03-03 03:01:07.510 ,7,0,0.,1.2,0.,1.2,0.,1.2,,0.0,,0.0
1979-03-03 03:01:08.710 ,7,0,0.,1.2,0.,1.2,0.,1.2,,0.0,,0.0
1979-03-03 03:01:09.910 ,7,0,0.,1.2,0.,1.2,0.,1.2,,0.0,,0.0
1979-03-03 03:01:11.110 ,7,0,0.,1.2,0.,1.2,0.,1.2,,0.0,,0.0
1979-03-03 03:01:12.310 ,7,0,0.,1.2,0.,1.2,0.,1.2,,0.0,,0.0
1979-03-03 03:01:13.510 ,7,0,0.,1.2,0.,1.2,0.,1.2,,0.0,,0.0
1979-03-03 03:01:14.710 ,7,0,0.,1.2,0.,1.2,0.,1.2,,0.0,,0.0
1979-03-03 03:01:15.910 ,7,0,0.,1.2,0.,1.2,0.,1.2,,0.0,,0.0
1979-03-03 03:01:17.110 ,7,0,0.,1.2,0.,1.2,0.,1.2,,0.0,,0.0
1979-03-03 03:01:18.310 ,7,0,0.,1.2,0.,1.2,0.,1.2,,0.0,,0.0
1979-03-03 03:01:19.510 ,7,0,0.,1.2,0.,1.2,0.,1.2,,0.0,,0.0
1979-03-03 03:01:20.710 ,7,0,0.,1.2,0.,1.2,0.,1.2,,0.0,,0.0
1979-03-03 03:01:21.910 ,7,0,0.,1.2,0.,1.2,0.,1.2,,0.0,,0.0
1979-03-03 03:01:23.110 ,7,0,0.,1.2,0.,1.2,0.,1.2,,0.0,,0.0
1979-03-03 03:01:24.310 ,7,0,0.,1.2,0.,1.2,0.,1.2,,0.0,,0.0
1979-03-03 03:01:25.510 ,7,0,0.,1.2,0.,1.2,0.,1.2,,0.0,,0.0
1979-03-03 03:01:26.710 ,7,0,0.,1.2,0.,1.2,0.,1.2,,0.0,,0.0
1979-03-03 03:01:27.910 ,7,0,0.,1.2,0.,1.2,0.,1.2,,0.0,,0.0
1979-03-03 03:01:29.110 ,7,0,0.,1.2,0.,1.2,0.,1.2,,0.0,,0.0
1979-03-03 03:01:30.310 ,7,0,0.,1.2,0.,1.2,0.,1.2,,0.0,,0.0
1979-03-03 03:01:31.510 ,7,0,0.,1.2,0.,1.2,0.,1.2,,0.0,,0.0
1979-03-03 03:01:32.710 ,7,0,0.,1.2,0.,1.2,0.,1.2,,0.0,,0.0
1979-03-03 03:01:33.910 ,7,0,0.,1.2,0.,1.2,0.,1.2,,0.0,,0.0
1979-03-03 03:01:35.110 ,7,0,0.,1.2,0.,1.2,0.,1.2,,0.0,,0.0
1979-03-03 03:01:36.310 ,7,0,0.,1.2,0.,1.2,0.,1.2,,0.0,,0.0
1979-03-03 03:01:37.510 ,7,0,0.,1.2,0.,1.2,0.,1.2,,0.0,,0.0
1979-03-03 03:01:38.710 ,7,0,0.,1.2,0.,1.2,0.,1.2,,0.0,,0.0
1979-03-03 03:01:39.910 ,7,0,0.,1.2,0.,1.2,0.,1.2,,0.0,,0.0
1979-03-03 03:01:41.110 ,7,0,0.,1.2,0.,1.2,0.,1.2,,0.0,,0.0
1979-03-03 03:01:42.310 ,7,0,0.,1.2,0.,1.2,0.,1.2,,0.0,,0.0
1979-03-03 03:01:43.510 ,7,0,0.,1.2,0.,1.2,0.,1.2,,0.0,,0.0
1979-03-03 03:01:44.710 ,7,0,0.,1.2,0.,1.2,0.,1.2,,0.0,,0.0
1979-03-03 03:01:45.910 ,7,0,0.,1.2,0.,1.2,0.,1.2,,0.0,,0.0
1979-03-03 03:01:47.110 ,7,0,0.,1.2,0.,1.2,0.,1.2,,0.0,,0.0
1979-03-03 03:01:48.310 ,6,0,0.,1.2,0.,1.2,0.,1.2,,0.0,,0.0
1979-03-03 03:01:49.510 ,6,0,0.,1.2,0.,1.2,0.,1.2,,0.0,,0.0
1979-03-03 03:01:50.710 ,6,0,0.,1.2,0.,1.2,0.,1.2,,0.0,,0.0
1979-03-03 03:01:51.910 ,6,0,0.,1.2,0.,1.2,0.,1.2,,0.0,,0.0
1979-03-03 03:01:53.110 ,6,0,0.,1.2,0.,1.2,0.,1.2,,0.0,,0.0
1979-03-03 03:01:54.310 ,6,0,0.,1.2,0.,1.2,0.,1.2,,0.0,,0.0
1979-03-03 03:01:55.510 ,6,0,0.,1.2,0.,1.2,0.,1.2,,0.0,,0.0
1979-03-03 03:01:56.710 ,6,0,0.,1.2,0.,1.2,0.,1.2,,0.0,,0.0
1979-03-03 03:01:57.910 ,6,0,0.,1.2,0.,1.2,0.,1.2,,0.0,,0.0
1979-03-03 03:01:59.110 ,6,0,0.,1.2,0.,1.2,0.,1.2,,0.0,,0.0
1979-03-03 03:02:00.310 ,6,0,0.,1.2,0.,1.2,0.,1.2,,0.0,,0.0
1979-03-03 03:02:01.510 ,6,0,0.,1.2,0.,1.2,0.,1.2,,0.0,,0.0
1979-03-03 03:02:02.710 ,6,0,0.,1.2,0.,1.2,0.,1.2,,0.0,,0.0
1979-03-03 03:02:03.910 ,6,0,0.,1.2,0.,1.2,0.,1.2,,0.0,,0.0
1979-03-03 03:02:05.110 ,6,0,0.,1.2,0.,1.2,0.,1.2,,0.0,,0.0
1979-03-03 03:02:06.310 ,6,0,0.,1.2,0.,1.2,0.,1.2,,0.0,,0.0
1979-03-03 03:02:07.510 ,6,0,0.,1.2,0.,1.2,0.,1.2,,0.0,,0.0
1979-03-03 03:02:08.710 ,6,0,0.,1.2,0.,1.2,0.,1.2,,0.0,,0.0
1979-03-03 03:02:09.910 ,6,0,0.,1.2,0.,1.2,0.,1.2,,0.0,,0.0
1979-03-03 03:02:11.110 ,6,0,0.,1.2,0.,1.2,0.,1.2,,0.0,,0.0
1979-03-03 03:02:12.310 ,5,0,0.,1.2,0.,1.2,0.,1.2,,0.0,,0.0
1979-03-03 03:02:13.510 ,5,0,0.,1.2,0.,1.2,0.,1.2,,0.0,,0.0
1979-03-03 03:02:14.710 ,5,0,0.,1.2,0.,1.2,0.,1.2,,0.0,,0.0
1979-03-03 03:02:15.910 ,5,0,0.,1.2,0.,1.2,0.,1.2,,0.0,,0.0
1979-03-03 03:02:17.110 ,5,0,0.,1.2,0.,1.2,0.,1.2,,0.0,,0.0
1979-03-03 03:02:18.310 ,5,0,0.,1.2,0.,1.2,0.,1.2,,0.0,,0.0
1979-03-03 03:02:19.510 ,5,0,0.,1.2,0.,1.2,0.,1.2,,0.0,,0.0
1979-03-03 03:02:20.710 ,5,0,0.,1.2,0.,1.2,0.,1.2,,0.0,,0.0
1979-03-03 03:02:21.910 ,5,0,0.,1.2,0.,1.2,0.,1.2,,0.0,,0.0
1979-03-03 03:02:23.110 ,5,0,0.,1.2,0.,1.2,0.,1.2,,0.0,,0.0
1979-03-03 03:02:24.310 ,5,0,0.,1.2,0.,1.2,0.,1.2,,0.0,,0.0
1979-03-03 03:02:25.510 ,5,0,0.,1.2,0.,1.2,0.,1.2,,0.0,,0.0
1979-03-03 03:02:26.710 ,5,0,0.,1.2,0.,1.2,0.,1.2,,0.0,,0.0
1979-03-03 03:02:27.910 ,5,0,0.,1.2,0.,1.2,0.,1.2,,0.0,,0.0
1979-03-03 03:02:29.110 ,5,0,0.,1.2,0.,1.2,0.,1.2,,0.0,,0.0
1979-03-03 03:02:30.310 ,5,0,0.,1.2,0.,1.2,0.,1.2,,0.0,,0.0
1979-03-03 03:02:31.510 ,5,0,0.,1.2,0.,1.2,0.,1.2,,0.0,,0.0
1979-03-03 03:02:32.710 ,5,0,0.,1.2,0.,1.2,0.,1.2,,0.0,,0.0
1979-03-03 03:02:33.910 ,5,0,0.,1.2,0.,1.2,0.,1.2,,0.0,,0.0
1979-03-03 03:02:35.110 ,5,0,0.,1.2,0.,1.2,0.,1.2,,0.0,,0.0
1979-03-03 03:02:36.310 ,4,0,0.,1.2,0.,1.2,0.,1.2,,0.0,,0.0
1979-03-03 03:02:37.510 ,4,0,0.,1.2,0.,1.2,0.,1.2,,0.0,,0.0
1979-03-03 03:02:38.710 ,4,0,0.,1.2,0.,1.2,0.,1.2,,0.0,,0.0
1979-03-03 03:02:39.910 ,4,0,0.,1.2,0.,1.2,0.,1.2,,0.0,,0.0
1979-03-03 03:02:41.110 ,4,0,0.,1.2,0.,1.2,0.,1.2,,0.0,,0.0
1979-03-03 03:02:42.310 ,4,0,0.,1.2,0.,1.2,0.,1.2,,0.0,,0.0
1979-03-03 03:02:43.510 ,4,0,0.,1.2,0.,1.2,0.,1.2,,0.0,,0.0
1979-03-03 03:02:44.710 ,4,0,0.,1.2,0.,1.2,0.,1.2,,0.0,,0.0
1979-03-03 03:02:45.910 ,4,0,0.,1.2,0.,1.2,0.,1.2,,0.0,,0.0
1979-03-03 03:02:47.110 ,4,0,0.,1.2,0.,1.2,0.,1.2,,0.0,,0.0
1979-03-03 03:02:48.310 ,4,0,0.,1.2,0.,1.2,0.,1.2,,0.0,,0.0
1979-03-03 03:02:49.510 ,4,0,0.,1.2,0.,1.2,0.,1.2,,0.0,,0.0
1979-03-03 03:02:50.710 ,4,0,0.,1.2,0.,1.2,0.,1.2,,0.0,,0.0
1979-03-03 03:02:51.910 ,4,0,0.,1.2,0.,1.2,0.,1.2,,0.0,,0.0
1979-03-03 03:02:53.110 ,4,0,0.,1.2,0.,1.2,0.,1.2,,0.0,,0.0
1979-03-03 03:02:54.310 ,4,0,0.,1.2,0.,1.2,0.,1.2,,0.0,,0.0
1979-03-03 03:02:55.510 ,4,0,0.,1.2,0.,1.2,0.,1.2,,0.0,,0.0
1979-03-03 03:02:56.710 ,4,0,0.,1.2,0.,1.2,0.,1.2,,0.0,,0.0
1979-03-03 03:02:57.910 ,4,0,0.,1.2,0.,1.2,0.,1.2,,0.0,,0.0
1979-03-03 03:02:59.110 ,4,0,0.,1.2,0.,1.2,0.,1.2,,0.0,,0.0
1979-03-03 03:03:00.310 ,3,0,0.,1.2,0.,1.2,0.,1.2,,0.0,,0.0
1979-03-03 03:03:01.510 ,3,0,0.,1.2,0.,1.2,0.,1.2,,0.0,,0.0
1979-03-03 03:03:02.710 ,3,0,0.,1.2,0.,1.2,0.,1.2,,0.0,,0.0
1979-03-03 03:03:03.910 ,3,0,0.,1.2,0.,1.2,0.,1.2,,0.0,,0.0
1979-03-03 03:03:05.110 ,3,0,0.,1.2,0.,1.2,0.,1.2,,0.0,,0.0
1979-03-03 03:03:06.310 ,3,0,0.,1.2,0.,1.2,0.,1.2,,0.0,,0.0
1979-03-03 03:03:07.510 ,3,0,0.,1.2,0.,1.2,0.,1.2,,0.0,,0.0
1979-03-03 03:03:08.710 ,3,0,0.,1.2,0.,1.2,0.,1.2,,0.0,,0.0
1979-03-03 03:03:09.910 ,3,0,0.,1.2,0.,1.2,0.,1.2,,0.0,,0.0
1979-03-03 03:03:11.110 ,3,0,0.,1.2,0.,1.2,0.,1.2,,0.0,,0.0
1979-03-03 03:03:12.310 ,3,0,0.,1.2,0.,1.2,0.,1.2,,0.0,,0.0
1979-03-03 03:03:13.510 ,3,0,0.,1.2,0.,1.2,0.,1.2,,0.0,,0.0
1979-03-03 03:03:14.710 ,3,0,0.,1.2,0.,1.2,0.,1.2,,0.0,,0.0
1979-03-03 03:03:15.910 ,3,0,0.,1.2,0.,1.2,0.,1.2,,0.0,,0.0
1979-03-03 03:03:17.110 ,3,0,0.,1.2,0.,1.2,0.,1.2,,0.0,,0.0
1979-03-03 03:03:18.310 ,3,0,0.,1.2,0.,1.2,0.,1.2,,0.0,,0.0
1979-03-03 03:03:19.510 ,3,0,0.,1.2,0.,1.2,0.,1.2,,0.0,,0.0
1979-03-03 03:03:20.710 ,3,0,0.,1.2,0.,1.2,0.,1.2,,0.0,,0.0
1979-03-03 03:03:21.910 ,3,0,0.,1.2,0.,1.2,0.,1.2,,0.0,,0.0
1979-03-03 03:03:23.110 ,3,0,0.,1.2,0.,1.2,0.,1.2,,0.0,,0.0
1979-03-03 03:03:24.310 ,2,0,0.,1.2,0.,1.2,0.,1.2,,0.0,,0.0
1979-03-03 03:03:25.510 ,2,0,0.,1.2,0.,1.2,0.,1.2,,0.0,,0.0
1979-03-03 03:03:26.710 ,2,0,0.,1.2,0.,1.2,0.,1.2,,0.0,,0.0
1979-03-03 03:03:27.910 ,2,0,0.,1.2,0.,1.2,0.,1.2,,0.0,,0.0
1979-03-03 03:03:29.110 ,2,0,0.,1.2,0.,1.2,0.,1.2,,0.0,,0.0
1979-03-03 03:03:30.310 ,2,0,0.,1.2,0.,1.2,0.,1.2,,0.0,,0.0
1979-03-03 03:03:31.510 ,2,0,0.,1.2,0.,1.2,0.,1.2,,0.0,,0.0
1979-03-03 03:03:32.710 ,2,0,0.,1.2,0.,1.2,0.,1.2,,0.0,,0.0
1979-03-03 03:03:33.910 ,2,0,0.,1.2,0.,1.2,0.,1.2,,0.0,,0.0
1979-03-03 03:03:35.110 ,2,0,0.,1.2,0.,1.2,0.,1.2,,0.0,,0.0
1979-03-03 03:03:36.310 ,2,0,0.,1.2,0.,1.2,0.,1.2,,0.0,,0.0
1979-03-03 03:03:37.510 ,2,0,0.,1.2,0.,1.2,0.,1.2,,0.0,,0.0
1979-03-03 03:03:38.710 ,2,0,0.,1.2,0.,1.2,0.,1.2,,0.0,,0.0
1979-03-03 03:03:39.910 ,2,0,0.,1.2,0.,1.2,0.,1.2,,0.0,,0.0
1979-03-03 03:03:41.110 ,2,0,0.,1.2,0.,1.2,0.,1.2,,0.0,,0.0
1979-03-03 03:03:42.310 ,2,0,0.,1.2,0.,1.2,0.,1.2,,0.0,,0.0
1979-03-03 03:03:43.510 ,2,0,0.,1.2,0.,1.2,0.,1.2,,0.0,,0.0
1979-03-03 03:03:44.710 ,2,0,0.,1.2,0.,1.2,0.,1.2,,0.0,,0.0
1979-03-03 03:03:45.910 ,2,0,0.,1.2,0.,1.2,0.,1.2,,0.0,,0.0
1979-03-03 03:03:47.110 ,2,0,0.,1.2,0.,1.2,0.,1.2,,0.0,,0.0
1979-03-03 03:03:48.310 ,1,0,0.,1.2,0.,1.2,0.,1.2,,0.0,,0.0
1979-03-03 03:03:49.510 ,1,0,0.,1.2,0.,1.2,0.,1.2,,0.0,,0.0
1979-03-03 03:03:50.710 ,1,0,0.,1.2,0.,1.2,0.,1.2,,0.0,,0.0
1979-03-03 03:03:51.910 ,1,0,0.,1.2,0.,1.2,0.,1.2,,0.0,,0.0
1979-03-03 03:03:53.110 ,1,0,0.,1.2,0.,1.2,0.,1.2,,0.0,,0.0
1979-03-03 03:03:54.310 ,1,0,0.,1.2,0.,1.2,0.,1.2,,0.0,,0.0
1979-03-03 03:03:55.510 ,1,0,0.,1.2,0.,1.2,0.,1.2,,0.0,,0.0
1979-03-03 03:03:56.710 ,1,0,0.,1.2,0.,1.2,0.,1.2,,0.0,,0.0
1979-03-03 03:03:57.910 ,1,0,0.,1.2,0.,1.2,0.,1.2,,0.0,,0.0
1979-03-03 03:03:59.110 ,1,0,0.,1.2,0.,1.2,0.,1.2,,0.0,,0.0
1979-03-03 03:04:00.310 ,1,0,0.,1.2,0.,1.2,0.,1.2,,0.0,,0.0
1979-03-03 03:04:01.510 ,1,0,0.,1.2,0.,1.2,0.,1.2,,0.0,,0.0
1979-03-03 03:04:02.710 ,1,0,0.,1.2,0.,1.2,0.,1.2,,0.0,,0.0
1979-03-03 03:04:03.910 ,1,0,0.,1.2,0.,1.2,0.,1.2,,0.0,,0.0
1979-03-03 03:04:05.110 ,1,0,0.,1.2,0.,1.2,0.,1.2,,0.0,,0.0
1979-03-03 03:04:06.310 ,1,0,0.,1.2,0.,1.2,0.,1.2,,0.0,,0.0
1979-03-03 03:04:07.510 ,1,0,0.,1.2,0.,1.2,0.,1.2,,0.0,,0.0
1979-03-03 03:04:08.710 ,1,0,0.,1.2,0.,1.2,0.,1.2,,0.0,,0.0
1979-03-03 03:04:09.910 ,1,0,0.,1.2,0.,1.2,0.,1.2,,0.0,,0.0
1979-03-03 03:04:11.110 ,1,0,0.,1.2,0.,1.2,0.,1.2,,0.0,,0.0
1979-03-03 03:04:12.310 ,0,0,0.,1.2,0.,1.2,0.,1.2,,0.0,,0.0
1979-03-03 03:04:13.510 ,0,0,0.,1.2,0.,1.2,0.,1.2,,0.0,,0.0
1979-03-03 03:04:14.710 ,0,0,0.,1.2,0.,1.2,0.,1.2,,0.0,,0.0
1979-03-03 03:04:15.910 ,0,0,0.,1.2,0.,1.2,0.,1.2,,0.0,,0.0
1979-03-03 03:04:17.110 ,0,0,0.,1.2,0.,1.2,0.,1.2,,0.0,,0.0
1979-03-03 03:04:18.310 ,0,0,0.,1.2,0.,1.2,0.,1.2,,0.0,,0.0
1979-03-03 03:04:19.510 ,0,0,0.,1.2,0.,1.2,0.,1.2,,0.0,,0.0
1979-03-03 03:04:20.710 ,0,0,0.,1.2,0.,1.2,0.,1.2,,0.0,,0.0
1979-03-03 03:04:21.910 ,0,0,0.,1.2,0.,1.2,0.,1.2,,0.0,,0.0
1979-03-03 03:04:23.110 ,0,0,0.,1.2,0.,1.2,0.,1.2,,0.0,,0.0
1979-03-03 03:04:24.310 ,0,0,0.,1.2,0.,1.2,0.,1.2,,0.0,,0.0
1979-03-03 03:04:25.510 ,0,0,0.,1.2,0.,1.2,0.,1.2,,0.0,,0.0
1979-03-03 03:04:26.710 ,0,0,0.,1.2,0.,1.2,0.,1.2,,0.0,,0.0
1979-03-03 03:04:27.910 ,0,0,0.,1.2,0.,1.2,0.,1.2,,0.0,,0.0
1979-03-03 03:04:29.110 ,0,0,0.,1.2,0.,1.2,0.,1.2,,0.0,,0.0
1979-03-03 03:04:30.310 ,0,0,0.,1.2,0.,1.2,0.,1.2,,0.0,,0.0
1979-03-03 03:04:31.510 ,0,0,0.,1.2,0.,1.2,0.,1.2,,0.0,,0.0
1979-03-03 03:04:32.710 ,0,0,0.,1.2,0.,1.2,0.,1.2,,0.0,,0.0
1979-03-03 03:04:33.910 ,0,0,0.,1.2,0.,1.2,0.,1.2,,0.0,,0.0
1979-03-03 03:04:35.110 ,0,0,0.,1.2,0.,1.2,0.,1.2,,0.0,,0.0
1979-03-03 03:04:36.320 ,0,0,0.,1.2,0.,1.2,0.,1.2,,0.0,,0.0
1979-03-03 03:04:37.520 ,0,0,0.,1.2,0.,1.2,0.,1.2,,0.0,,0.0
1979-03-03 03:04:38.720 ,0,0,0.,1.2,0.,1.2,0.,1.2,,0.0,,0.0
1979-03-03 03:04:39.920 ,0,0,0.,1.2,0.,1.2,0.,1.2,,0.0,,0.0
1979-03-03 03:04:41.120 ,0,0,0.,1.2,0.,1.2,0.,1.2,,0.0,,0.0
1979-03-03 03:04:42.320 ,0,0,0.,1.2,0.,1.2,0.,1.2,,0.0,,0.0
1979-03-03 03:04:43.520 ,0,0,0.,1.2,0.,1.2,0.,1.2,,0.0,,0.0
1979-03-03 03:04:44.720 ,0,0,0.,1.2,0.,1.2,0.,1.2,,0.0,,0.0
1979-03-03 03:04:45.920 ,0,0,0.,1.2,0.,1.2,0.,1.2,,0.0,,0.0
1979-03-03 03:04:47.120 ,0,0,0.,1.2,0.,1.2,0.,1.2,,0.0,,0.0
1979-03-03 03:04:48.320 ,0,0,0.,1.2,0.,1.2,0.,1.2,,0.0,,0.0
1979-03-03 03:04:49.520 ,0,0,0.,1.2,0.,1.2,0.,1.2,,0.0,,0.0
1979-03-03 03:04:50.720 ,0,0,0.,1.2,0.,1.2,0.,1.2,,0.0,,0.0
1979-03-03 03:04:51.920 ,0,0,0.,1.2,0.,1.2,0.,1.2,,0.0,,0.0
1979-03-03 03:04:53.120 ,0,0,0.,1.2,0.,1.2,0.,1.2,,0.0,,0.0
1979-03-03 03:04:54.320 ,0,0,0.,1.2,0.,1.2,0.,1.2,,0.0,,0.0
1979-03-03 03:04:55.520 ,0,0,0.,1.2,0.,1.2,0.,1.2,,0.0,,0.0
1979-03-03 03:04:56.720 ,0,0,0.,1.2,0.,1.2,0.,1.2,,0.0,,0.0
1979-03-03 03:04:57.920 ,0,0,0.,1.2,0.,1.2,0.,1.2,,0.0,,0.0
1979-03-03 03:04:59.120 ,0,0,0.,1.2,0.,1.2,0.,1.2,,0.0,,0.0
1979-03-03 03:05:00.320 ,1,0,0.,1.2,0.,1.2,0.,1.2,,0.0,,0.0
1979-03-03 03:05:01.520 ,1,0,0.,1.2,0.,1.2,0.,1.2,,0.0,,0.0
1979-03-03 03:05:02.720 ,1,0,0.,1.2,0.,1.2,0.,1.2,,0.0,,0.0
1979-03-03 03:05:03.920 ,1,0,0.,1.2,0.,1.2,0.,1.2,,0.0,,0.0
1979-03-03 03:05:05.120 ,1,0,0.,1.2,0.,1.2,0.,1.2,,0.0,,0.0
1979-03-03 03:05:06.320 ,1,0,0.,1.2,0.,1.2,0.,1.2,,0.0,,0.0
1979-03-03 03:05:07.520 ,1,0,0.,1.2,0.,1.2,0.,1.2,,0.0,,0.0
1979-03-03 03:05:08.720 ,1,0,0.,1.2,0.,1.2,0.,1.2,,0.0,,0.0
1979-03-03 03:05:09.920 ,1,0,0.,1.2,0.,1.2,0.,1.2,,0.0,,0.0
1979-03-03 03:05:11.120 ,1,0,0.,1.2,0.,1.2,0.,1.2,,0.0,,0.0
1979-03-03 03:05:12.320 ,1,0,0.,1.2,0.,1.2,0.,1.2,,0.0,,0.0
1979-03-03 03:05:13.520 ,1,0,0.,1.2,0.,1.2,0.,1.2,,0.0,,0.0
1979-03-03 03:05:14.720 ,1,0,0.,1.2,0.,1.2,0.,1.2,,0.0,,0.0
1979-03-03 03:05:15.920 ,1,0,0.,1.2,0.,1.2,0.,1.2,,0.0,,0.0
1979-03-03 03:05:17.120 ,1,0,0.,1.2,0.,1.2,0.,1.2,,0.0,,0.0
1979-03-03 03:05:18.320 ,1,0,0.,1.2,0.,1.2,0.,1.2,,0.0,,0.0
1979-03-03 03:05:19.520 ,1,0,0.,1.2,0.,1.2,0.,1.2,,0.0,,0.0
1979-03-03 03:05:20.720 ,1,0,0.,1.2,0.,1.2,0.,1.2,,0.0,,0.0
1979-03-03 03:05:21.920 ,1,0,0.,1.2,0.,1.2,0.,1.2,,0.0,,0.0
1979-03-03 03:05:23.120 ,1,0,0.,1.2,0.,1.2,0.,1.2,,0.0,,0.0
1979-03-03 03:05:24.320 ,2,0,0.,1.2,0.,1.2,0.,1.2,,0.0,,0.0
1979-03-03 03:05:25.520 ,2,0,0.,1.2,0.,1.2,0.,1.2,,0.0,,0.0
1979-03-03 03:05:26.720 ,2,0,0.,1.2,0.,1.2,0.,1.2,,0.0,,0.0
1979-03-03 03:05:27.920 ,2,0,0.,1.2,0.,1.2,0.,1.2,,0.0,,0.0
1979-03-03 03:05:29.120 ,2,0,0.,1.2,0.,1.2,0.,1.2,,0.0,,0.0
1979-03-03 03:05:30.320 ,2,0,0.,1.2,0.,1.2,0.,1.2,,0.0,,0.0
1979-03-03 03:05:31.520 ,2,0,0.,1.2,0.,1.2,0.,1.2,,0.0,,0.0
1979-03-03 03:05:32.720 ,2,0,0.,1.2,0.,1.2,0.,1.2,,0.0,,0.0
1979-03-03 03:05:33.920 ,2,0,0.,1.2,0.,1.2,0.,1.2,,0.0,,0.0
1979-03-03 03:05:35.120 ,2,0,0.,1.2,0.,1.2,0.,1.2,,0.0,,0.0
1979-03-03 03:05:36.320 ,2,0,0.,1.2,0.,1.2,0.,1.2,,0.0,,0.0
1979-03-03 03:05:37.520 ,2,0,0.,1.2,0.,1.2,0.,1.2,,0.0,,0.0
1979-03-03 03:05:38.720 ,2,0,0.,1.2,0.,1.2,0.,1.2,,0.0,,0.0
1979-03-03 03:05:39.920 ,2,0,0.,1.2,0.,1.2,0.,1.2,,0.0,,0.0
1979-03-03 03:05:41.120 ,2,0,0.,1.2,0.,1.2,0.,1.2,,0.0,,0.0
1979-03-03 03:05:42.320 ,2,0,0.,1.2,0.,1.2,0.,1.2,,0.0,,0.0
1979-03-03 03:05:43.520 ,2,0,0.,1.2,0.,1.2,0.,1.2,,0.0,,0.0
1979-03-03 03:05:44.720 ,2,0,0.,1.2,0.,1.2,0.,1.2,,0.0,,0.0
1979-03-03 03:05:45.920 ,2,0,0.,1.2,0.,1.2,0.,1.2,,0.0,,0.0
1979-03-03 03:05:47.120 ,2,0,0.,1.2,0.,1.2,0.,1.2,,0.0,,0.0
1979-03-03 03:05:48.320 ,3,0,0.,1.2,0.,1.2,0.,1.2,,0.0,,0.0
1979-03-03 03:05:49.520 ,3,0,0.,1.2,0.,1.2,0.,1.2,,0.0,,0.0
1979-03-03 03:05:50.720 ,3,0,0.,1.2,0.,1.2,0.,1.2,,0.0,,0.0
1979-03-03 03:05:51.920 ,3,0,0.,1.2,0.,1.2,0.,1.2,,0.0,,0.0
1979-03-03 03:05:53.120 ,3,0,0.,1.2,0.,1.2,0.,1.2,,0.0,,0.0
1979-03-03 03:05:54.320 ,3,0,0.,1.2,0.,1.2,0.,1.2,,0.0,,0.0
1979-03-03 03:05:55.520 ,3,0,0.,1.2,0.,1.2,0.,1.2,,0.0,,0.0
1979-03-03 03:05:56.720 ,3,0,0.,1.2,0.,1.2,0.,1.2,,0.0,,0.0
1979-03-03 03:05:57.920 ,3,0,0.,1.2,0.,1.2,0.,1.2,,0.0,,0.0
1979-03-03 03:05:59.120 ,3,0,0.,1.2,0.,1.2,0.,1.2,,0.0,,0.0
1979-03-03 03:06:00.320 ,3,0,0.,1.2,0.,1.2,0.,1.2,,0.0,,0.0
1979-03-03 03:06:01.520 ,3,0,0.,1.2,0.,1.2,0.,1.2,,0.0,,0.0
1979-03-03 03:06:02.720 ,3,0,0.,1.2,0.,1.2,0.,1.2,,0.0,,0.0
1979-03-03 03:06:03.920 ,3,0,0.,1.2,0.,1.2,0.,1.2,,0.0,,0.0
1979-03-03 03:06:05.120 ,3,0,0.,1.2,0.,1.2,0.,1.2,,0.0,,0.0
1979-03-03 03:06:06.320 ,3,0,0.,1.2,0.,1.2,0.,1.2,,0.0,,0.0
1979-03-03 03:06:07.520 ,3,0,0.,1.2,0.,1.2,0.,1.2,,0.0,,0.0
1979-03-03 03:06:08.720 ,3,0,0.,1.2,0.,1.2,0.,1.2,,0.0,,0.0
1979-03-03 03:06:09.920 ,3,0,0.,1.2,0.,1.2,0.,1.2,,0.0,,0.0
1979-03-03 03:06:11.120 ,3,0,0.,1.2,0.,1.2,0.,1.2,,0.0,,0.0
1979-03-03 03:06:12.320 ,4,0,0.,1.2,0.,1.2,0.,1.2,,0.0,,0.0
1979-03-03 03:06:13.520 ,4,0,0.,1.2,0.,1.2,0.,1.2,,0.0,,0.0
1979-03-03 03:06:14.720 ,4,0,0.,1.2,0.,1.2,0.,1.2,,0.0,,0.0
1979-03-03 03:06:15.920 ,4,0,0.,1.2,0.,1.2,0.,1.2,,0.0,,0.0
1979-03-03 03:06:17.120 ,4,0,0.,1.2,0.,1.2,0.,1.2,,0.0,,0.0
1979-03-03 03:06:18.320 ,4,0,0.,1.2,0.,1.2,0.,1.2,,0.0,,0.0
1979-03-03 03:06:19.520 ,4,0,0.,1.2,0.,1.2,0.,1.2,,0.0,,0.0
1979-03-03 03:06:20.720 ,4,0,0.,1.2,0.,1.2,0.,1.2,,0.0,,0.0
1979-03-03 03:06:21.920 ,4,0,0.,1.2,0.,1.2,0.,1.2,,0.0,,0.0
1979-03-03 03:06:23.120 ,4,0,0.,1.2,0.,1.2,0.,1.2,,0.0,,0.0
1979-03-03 03:06:24.320 ,4,0,0.,1.2,0.,1.2,0.,1.2,,0.0,,0.0
1979-03-03 03:06:25.520 ,4,0,0.,1.2,0.,1.2,0.,1.2,,0.0,,0.0
1979-03-03 03:06:26.720 ,4,0,0.,1.2,0.,1.2,0.,1.2,,0.0,,0.0
1979-03-03 03:06:27.920 ,4,0,0.,1.2,0.,1.2,0.,1.2,,0.0,,0.0
1979-03-03 03:06:29.120 ,4,0,0.,1.2,0.,1.2,0.,1.2,,0.0,,0.0
1979-03-03 03:06:30.320 ,4,0,0.,1.2,0.,1.2,0.,1.2,,0.0,,0.0
1979-03-03 03:06:31.520 ,4,0,0.,1.2,0.,1.2,0.,1.2,,0.0,,0.0
1979-03-03 03:06:32.720 ,4,0,0.,1.2,0.,1.2,0.,1.2,,0.0,,0.0
1979-03-03 03:06:33.920 ,4,0,0.,1.2,0.,1.2,0.,1.2,,0.0,,0.0
1979-03-03 03:06:35.120 ,4,0,0.,1.2,0.,1.2,0.,1.2,,0.0,,0.0
1979-03-03 03:06:36.320 ,5,0,0.,1.2,0.,1.2,0.,1.2,,0.0,,0.0
1979-03-03 03:06:37.520 ,5,0,0.,1.2,0.,1.2,0.,1.2,,0.0,,0.0
1979-03-03 03:06:38.720 ,5,0,0.,1.2,0.,1.2,0.,1.2,,0.0,,0.0
1979-03-03 03:06:39.920 ,5,0,0.,1.2,0.,1.2,0.,1.2,,0.0,,0.0
1979-03-03 03:06:41.120 ,5,0,0.,1.2,0.,1.2,0.,1.2,,0.0,,0.0
1979-03-03 03:06:42.320 ,5,0,0.,1.2,0.,1.2,0.,1.2,,0.0,,0.0
1979-03-03 03:06:43.520 ,5,0,0.,1.2,0.,1.2,0.,1.2,,0.0,,0.0
1979-03-03 03:06:44.720 ,5,0,0.,1.2,0.,1.2,0.,1.2,,0.0,,0.0
1979-03-03 03:06:45.920 ,5,0,0.,1.2,0.,1.2,0.,1.2,,0.0,,0.0
1979-03-03 03:06:47.120 ,5,0,0.,1.2,0.,1.2,0.,1.2,,0.0,,0.0
1979-03-03 03:06:48.320 ,5,0,0.,1.2,0.,1.2,0.,1.2,,0.0,,0.0
1979-03-03 03:06:49.520 ,5,0,0.,1.2,0.,1.2,0.,1.2,,0.0,,0.0
1979-03-03 03:06:50.720 ,5,0,0.,1.2,0.,1.2,0.,1.2,,0.0,,0.0
1979-03-03 03:06:51.920 ,5,0,0.,1.2,0.,1.2,0.,1.2,,0.0,,0.0
1979-03-03 03:06:53.120 ,5,0,0.,1.2,0.,1.2,0.,1.2,,0.0,,0.0
1979-03-03 03:06:54.320 ,5,0,0.,1.2,0.,1.2,0.,1.2,,0.0,,0.0
1979-03-03 03:06:55.520 ,5,0,0.,1.2,0.,1.2,0.,1.2,,0.0,,0.0
1979-03-03 03:06:56.720 ,5,0,0.,1.2,0.,1.2,0.,1.2,,0.0,,0.0
1979-03-03 03:06:57.920 ,5,0,0.,1.2,0.,1.2,0.,1.2,,0.0,,0.0
1979-03-03 03:06:59.120 ,5,0,0.,1.2,0.,1.2,0.,1.2,,0.0,,0.0
1979-03-03 03:07:00.320 ,6,0,0.,1.2,0.,1.2,0.,1.2,,0.0,,0.0
1979-03-03 03:07:01.520 ,6,0,0.,1.2,0.,1.2,0.,1.2,,0.0,,0.0
1979-03-03 03:07:02.720 ,6,0,0.,1.2,0.,1.2,0.,1.2,,0.0,,0.0
1979-03-03 03:07:03.920 ,6,0,0.,1.2,0.,1.2,0.,1.2,,0.0,,0.0
1979-03-03 03:07:05.120 ,6,0,0.,1.2,0.,1.2,0.,1.2,,0.0,,0.0
1979-03-03 03:07:06.320 ,6,0,0.,1.2,0.,1.2,0.,1.2,,0.0,,0.0
1979-03-03 03:07:07.520 ,6,0,0.,1.2,0.,1.2,0.,1.2,,0.0,,0.0
1979-03-03 03:07:08.720 ,6,0,0.,1.2,0.,1.2,0.,1.2,,0.0,,0.0
1979-03-03 03:07:09.920 ,6,0,0.,1.2,0.,1.2,0.,1.2,,0.0,,0.0
1979-03-03 03:07:11.120 ,6,0,0.,1.2,0.,1.2,0.,1.2,,0.0,,0.0
1979-03-03 03:07:12.320 ,6,0,0.,1.2,0.,1.2,0.,1.2,,0.0,,0.0
1979-03-03 03:07:13.520 ,6,0,0.,1.2,0.,1.2,0.,1.2,,0.0,,0.0
1979-03-03 03:07:14.720 ,6,0,0.,1.2,0.,1.2,0.,1.2,,0.0,,0.0
1979-03-03 03:07:15.920 ,6,0,0.,1.2,0.,1.2,0.,1.2,,0.0,,0.0
1979-03-03 03:07:17.120 ,6,0,0.,1.2,0.,1.2,0.,1.2,,0.0,,0.0
1979-03-03 03:07:18.320 ,6,0,0.,1.2,0.,1.2,0.,1.2,,0.0,,0.0
1979-03-03 03:07:19.520 ,6,0,0.,1.2,0.,1.2,0.,1.2,,0.0,,0.0
1979-03-03 03:07:20.720 ,6,0,0.,1.2,0.,1.2,0.,1.2,,0.0,,0.0
1979-03-03 03:07:21.920 ,6,0,0.,1.2,0.,1.2,0.,1.2,,0.0,,0.0
1979-03-03 03:07:23.120 ,6,0,0.,1.2,0.,1.2,0.,1.2,,0.0,,0.0
1979-03-03 03:07:24.320 ,7,0,0.,1.2,0.,1.2,0.,1.2,,0.0,,0.0
1979-03-03 03:07:25.520 ,7,0,0.,1.2,0.,1.2,0.,1.2,,0.0,,0.0
1979-03-03 03:07:26.720 ,7,0,0.,1.2,0.,1.2,0.,1.2,,0.0,,0.0
1979-03-03 03:07:27.920 ,7,0,0.,1.2,0.,1.2,0.,1.2,,0.0,,0.0
1979-03-03 03:07:29.120 ,7,0,0.,1.2,0.,1.2,0.,1.2,,0.0,,0.0
1979-03-03 03:07:30.320 ,7,0,0.,1.2,0.,1.2,0.,1.2,,0.0,,0.0
1979-03-03 03:07:31.520 ,7,0,0.,1.2,0.,1.2,0.,1.2,,0.0,,0.0
1979-03-03 03:07:32.720 ,7,0,0.,1.2,0.,1.2,0.,1.2,,0.0,,0.0
1979-03-03 03:07:33.920 ,7,0,0.,1.2,0.,1.2,0.,1.2,,0.0,,0.0
1979-03-03 03:07:35.120 ,7,0,0.,1.2,0.,1.2,0.,1.2,,0.0,,0.0
1979-03-03 03:07:36.320 ,7,0,0.,1.2,0.,1.2,0.,1.2,,0.0,,0.0
1979-03-03 03:07:37.520 ,7,0,0.,1.2,0.,1.2,0.,1.2,,0.0,,0.0
1979-03-03 03:07:38.720 ,7,0,0.,1.2,0.,1.2,0.,1.2,,0.0,,0.0
1979-03-03 03:07:39.920 ,7,0,0.,1.2,0.,1.2,0.,1.2,,0.0,,0.0
1979-03-03 03:07:41.120 ,7,0,0.,1.2,0.,1.2,0.,1.2,,0.0,,0.0
1979-03-03 03:07:42.320 ,7,0,0.,1.2,0.,1.2,0.,1.2,,0.0,,0.0
1979-03-03 03:07:43.520 ,7,0,0.,1.2,0.,1.2,0.,1.2,,0.0,,0.0
1979-03-03 03:07:44.720 ,7,0,0.,1.2,0.,1.2,0.,1.2,,0.0,,0.0
1979-03-03 03:07:45.920 ,7,0,0.,1.2,0.,1.2,0.,1.2,,0.0,,0.0
1979-03-03 03:07:47.120 ,7,0,0.,1.2,0.,1.2,0.,1.2,,0.0,,0.0
1979-03-03 03:07:48.320 ,4,0,0.,1.2,0.,1.2,0.,1.2,,0.0,,0.0
1979-03-03 03:07:49.520 ,4,0,0.,1.2,0.,1.2,0.,1.2,,0.0,,0.0
1979-03-03 03:07:50.720 ,4,0,0.,1.2,0.,1.2,0.,1.2,,0.0,,0.0
1979-03-03 03:07:51.920 ,4,0,0.,1.2,0.,1.2,0.,1.2,,0.0,,0.0
1979-03-03 03:07:53.120 ,4,0,0.,1.2,0.,1.2,0.,1.2,,0.0,,0.0
1979-03-03 03:07:54.320 ,4,0,0.,1.2,0.,1.2,0.,1.2,,0.0,,0.0
1979-03-03 03:07:55.520 ,4,0,0.,1.2,0.,1.2,0.,1.2,,0.0,,0.0
1979-03-03 03:07:56.720 ,4,0,0.,1.2,0.,1.2,0.,1.2,,0.0,,0.0
1979-03-03 03:07:57.920 ,4,0,0.,1.2,0.,1.2,0.,1.2,,0.0,,0.0
1979-03-03 03:07:59.120 ,4,0,0.,1.2,0.,1.2,0.,1.2,,0.0,,0.0
1979-03-03 03:08:00.320 ,4,0,0.,1.2,0.,1.2,0.,1.2,,0.0,,0.0
1979-03-03 03:08:01.520 ,4,0,0.,1.2,0.,1.2,0.,1.2,,0.0,,0.0